Location: Caltech
(34.1382°N, 118.1253°W)
Time: 16:55:12
(UTC-07:00)

Cosmos 1833 Rocket - Visible Passes

Search period start: 04 August 2015 00:00
Search period end: 14 August 2015 00:00
Orbit: 831 x 842 km, 71.0° (Epoch: 03 August)

Date Brightness Start Highest point End Pass type
(mag) Time Alt. Az. Time Alt. Az. Time Alt. Az.
04 Aug 4.4 00:41:38 10° NNW 00:44:14 28° N 00:44:14 28° N visible
05 Aug 4.4 00:25:01 10° NNW 00:27:42 28° N 00:27:42 28° N visible
06 Aug 4.4 00:08:24 10° NNW 00:11:12 29° N 00:11:12 29° N visible
06 Aug 4.3 23:51:48 10° N 23:54:44 30° N 23:54:44 30° N visible
07 Aug 4.2 23:35:12 10° N 23:38:17 30° N 23:38:17 30° N visible
08 Aug 4.1 23:18:37 10° N 23:21:53 31° NNE 23:21:53 31° NNE visible
09 Aug 5.4 01:03:29 10° NW 01:03:34 10° NW 01:03:34 10° NW visible
09 Aug 4.0 23:02:02 10° N 23:05:31 31° NNE 23:05:31 31° NNE visible
10 Aug 5.3 00:46:40 10° NW 00:47:12 12° NW 00:47:12 12° NW visible
10 Aug 4.0 22:45:28 10° N 22:49:10 31° NNE 22:49:10 31° NNE visible
11 Aug 5.2 00:29:52 10° NW 00:30:52 14° NW 00:30:52 14° NW visible
11 Aug 3.9 22:28:55 10° N 22:32:51 31° NE 22:32:51 31° NE visible
12 Aug 5.0 00:13:05 10° NW 00:14:33 17° WNW 00:14:33 17° WNW visible
12 Aug 3.9 22:12:21 10° N 22:16:35 30° NE 22:16:35 30° NE visible
12 Aug 4.9 23:56:19 10° NW 23:58:17 19° WNW 23:58:17 19° WNW visible
13 Aug 3.8 21:55:49 10° N 22:00:20 29° NE 22:00:20 29° NE visible
13 Aug 4.7 23:39:34 10° NW 23:42:02 23° WNW 23:42:02 23° WNW visible
